Date String (YYYY-MM-DD hh:mm:ss) UTC,Instrument flags,Ambient pressure (hPa),Sample flow (lpm),Bypass flow (lpm),Sample temperature (°C),Ambient temperature (°C),ASC tube jacket temperature (°C),LED temperature (°C),Box temperature (°C),Sample RH (%),Mass concentration (μg/m³),Mass concentration (μg/m³)
DateTimeUTC,F1_M11,P_M11,Q1_M11,Q2_M11,T1_M11,T2_M11,T3_M11,T4_M11,T5_M11,U1_M11,X0_M11,X2_M11
2021-08-16 07:00:00,,0829.3,5.00,0.00,29.6,26.3,00.0,38.6,30.9,23.0,0020.70,0011.14
2021-08-16 07:01:00,,0829.2,5.00,0.00,29.4,26.1,00.0,38.6,30.8,23.1,0020.20,0011.17
2021-08-16 07:02:00,,0829.3,4.99,0.00,29.4,26.5,00.0,38.6,30.9,23.2,0020.28,0011.18
2021-08-16 07:03:00,,0829.2,5.00,0.00,29.3,26.8,00.0,38.5,30.9,23.2,0020.48,0011.13
2021-08-16 07:04:00,,0829.2,5.01,0.00,29.3,27.2,00.0,38.5,30.9,23.1,0019.05,0011.05
2021-08-16 07:05:00,,0829.3,5.00,0.00,29.3,27.5,00.0,38.5,31.0,22.9,0018.72,0010.96
2021-08-16 07:06:00,,0829.3,5.01,0.00,29.3,27.7,00.0,38.5,31.1,22.9,0018.09,0010.83
2021-08-16 07:07:00,,0829.3,4.99,0.00,29.4,27.9,00.0,38.5,31.1,22.8,0018.08,0010.75
2021-08-16 07:08:00,,0829.3,5.00,0.00,29.4,28.1,00.0,38.5,31.2,22.7,0017.58,0010.71
2021-08-16 07:09:00,,0829.3,5.01,0.00,29.4,28.2,00.0,38.5,31.2,22.6,0017.35,0010.66
2021-08-16 07:10:00,,0829.3,5.01,0.00,29.5,28.3,00.0,38.5,31.2,22.6,0017.57,0010.57
2021-08-16 07:11:00,,0829.3,4.99,0.00,29.5,28.4,00.0,38.5,31.3,22.6,0017.74,0010.52
2021-08-16 07:12:00,,0829.2,5.00,0.00,29.5,28.4,00.0,38.5,31.3,22.4,0018.39,0010.46
2021-08-16 07:13:00,,0829.1,5.00,0.00,29.6,28.5,00.0,38.6,31.4,22.3,0018.33,0010.43
2021-08-16 07:14:00,,0829.1,5.00,0.00,29.6,28.6,00.0,38.6,31.4,22.2,0017.77,0010.42
2021-08-16 07:15:00,,0829.0,5.01,0.00,29.6,28.6,00.0,38.6,31.4,22.1,0017.58,0010.40
2021-08-16 07:16:00,,0829.1,5.00,0.00,29.6,28.7,00.0,38.6,31.5,22.0,0017.07,0010.36
2021-08-16 07:17:00,,0829.0,5.00,0.00,29.7,28.7,00.0,38.6,31.5,21.9,0016.87,0010.36
2021-08-16 07:18:00,,0829.1,5.00,0.00,29.7,28.8,00.0,38.7,31.5,21.8,0016.51,0010.39
2021-08-16 07:19:00,,0829.1,5.01,0.00,29.7,28.8,00.0,38.7,31.5,21.6,0016.32,0010.40
2021-08-16 07:20:00,,0829.1,4.99,0.00,29.8,28.5,00.0,38.7,31.5,21.6,0016.51,0010.41
2021-08-16 07:21:00,,0829.1,5.00,0.00,29.6,26.6,00.0,38.7,30.9,21.6,0016.44,0010.45
2021-08-16 07:22:00,,0829.1,5.01,0.00,29.4,25.2,00.0,38.6,30.5,21.8,0016.99,0010.45
2021-08-16 07:23:00,,0829.1,4.99,0.00,29.3,25.3,00.0,38.6,30.5,22.0,0016.27,0010.42
2021-08-16 07:24:00,,0829.1,5.00,0.00,29.2,25.8,00.0,38.5,30.6,22.1,0017.18,0010.42
2021-08-16 07:25:00,,0829.1,5.01,0.00,29.1,26.2,00.0,38.5,30.7,22.2,0017.26,0010.41
2021-08-16 07:26:00,,0829.1,4.99,0.00,29.1,26.7,00.0,38.4,30.7,22.2,0017.55,0010.41
2021-08-16 07:27:00,,0829.1,4.99,0.00,29.1,27.0,00.0,38.4,30.8,22.2,0017.54,0010.41
2021-08-16 07:28:00,,0829.1,4.99,0.00,29.1,27.3,00.0,38.4,30.9,22.2,0017.27,0010.39
2021-08-16 07:29:00,,0829.1,5.02,0.00,29.2,27.5,00.0,38.4,30.9,22.1,0017.27,0010.39
2021-08-16 07:30:00,,0829.0,4.99,0.00,29.2,27.7,00.0,38.4,31.0,22.0,0017.11,0010.38
2021-08-16 07:31:00,,0829.1,5.01,0.00,29.2,27.9,00.0,38.4,31.0,22.0,0016.78,0010.40
2021-08-16 07:32:00,,0829.1,4.99,0.00,29.3,28.0,00.0,38.4,31.1,21.9,0016.39,0010.38
2021-08-16 07:33:00,,0829.0,5.01,0.00,29.3,28.1,00.0,38.4,31.1,21.8,0015.44,0010.35
2021-08-16 07:34:00,,0829.0,5.00,0.00,29.3,28.2,00.0,38.4,31.1,21.8,0015.20,0010.33
2021-08-16 07:35:00,,0829.0,5.00,0.00,29.4,28.3,00.0,38.4,31.2,21.7,0013.99,0010.32
2021-08-16 07:36:00,,0829.0,5.01,0.00,29.4,28.3,00.0,38.4,31.2,21.7,0013.83,0010.31
2021-08-16 07:37:00,,0829.0,5.00,0.00,29.4,28.4,00.0,38.4,31.3,21.6,0013.51,0010.28
2021-08-16 07:38:00,,0828.9,4.99,0.00,29.5,28.4,00.0,38.4,31.3,21.6,0013.40,0010.24
2021-08-16 07:39:00,,0828.9,5.01,0.00,29.5,28.5,00.0,38.5,31.3,21.5,0013.44,0010.26
2021-08-16 07:40:00,,0828.9,5.00,0.00,29.5,28.5,00.0,38.5,31.4,21.5,0013.41,0010.27
2021-08-16 07:41:00,,0828.9,5.00,0.00,29.6,28.6,00.0,38.5,31.4,21.4,0013.46,0010.26
2021-08-16 07:42:00,,0828.8,4.99,0.00,29.6,28.6,00.0,38.5,31.4,21.4,0013.45,0010.22
2021-08-16 07:43:00,,0828.8,5.01,0.00,29.6,28.6,00.0,38.6,31.4,21.3,0013.45,0010.25
2021-08-16 07:44:00,,0828.9,5.01,0.00,29.6,28.7,00.0,38.6,31.4,21.3,0013.55,0010.29
2021-08-16 07:45:00,,0828.9,4.98,0.00,29.7,28.7,00.0,38.6,31.5,21.2,0013.53,0010.30
2021-08-16 07:46:00,,0828.9,5.01,0.00,29.7,28.8,00.0,38.6,31.5,21.1,0013.45,0010.27
2021-08-16 07:47:00,,0828.9,4.99,0.00,29.7,28.8,00.0,38.7,31.5,21.1,0013.44,0010.26
2021-08-16 07:48:00,,0828.9,4.99,0.00,29.7,28.8,00.0,38.7,31.6,21.1,0013.59,0010.31
2021-08-16 07:49:00,,0828.9,5.00,0.00,29.8,28.9,00.0,38.7,31.6,21.1,0013.80,0010.36
2021-08-16 07:50:00,,0828.8,5.01,0.00,29.8,28.9,00.0,38.7,31.6,21.0,0014.53,0010.35
2021-08-16 07:51:00,,0828.9,5.00,0.00,29.8,27.5,00.0,38.7,31.2,20.9,0014.51,0010.33
2021-08-16 07:52:00,,0829.4,4.98,0.00,29.6,26.1,00.0,38.7,30.9,21.0,0014.58,0010.34
2021-08-16 07:53:00,,0829.2,5.02,0.00,29.5,26.2,00.0,38.7,30.9,21.1,0014.65,0010.32
2021-08-16 07:54:00,,0828.8,4.99,0.00,29.4,26.5,00.0,38.6,30.9,21.3,0015.02,0010.28
2021-08-16 07:55:00,,0828.8,5.00,0.00,29.4,26.9,00.0,38.6,31.0,21.3,0015.33,0010.22
2021-08-16 07:56:00,,0828.8,5.02,0.00,29.4,27.3,00.0,38.6,31.0,21.3,0015.40,0010.19
2021-08-16 07:57:00,,0828.7,5.01,0.00,29.4,27.5,00.0,38.6,31.1,21.3,0015.66,0010.21
2021-08-16 07:58:00,,0828.7,4.99,0.00,29.4,27.7,00.0,38.6,31.1,21.3,0015.68,0010.19
2021-08-16 07:59:00,,0828.6,5.01,0.00,29.4,27.9,00.0,38.6,31.2,21.2,0015.65,0010.16
